• In Netherlands
  • List of Countries
  • For 7 days
  • Water Temperature
  • Satellite Maps
  • Weather Map
  • Weather Widgets
  • user-avatar
    Login

    Hourly Weather Blagoevgrad

    Today, 14 November, Wednesday

    Time Temperature Precipitation Wind Pressure Humidity
    00:00 +9°C° 0 mm 1 mps 728 mmHg 74%
    01:00 +8°C° 0 mm 1 mps 728 mmHg 74%
    02:00 +8°C° 0 mm 1 mps 728 mmHg 74%
    03:00 +8°C° 0 mm 1 mps 727 mmHg 74%
    04:00 +8°C° 0 mm 1 mps 727 mmHg 74%
    05:00 +8°C° 0 mm 1 mps 727 mmHg 73%
    06:00 +8°C° 0 mm 1 mps 727 mmHg 71%
    07:00 +9°C° 0 mm 1 mps 727 mmHg 68%
    08:00 +9°C° 0 mm 1 mps 727 mmHg 65%
    09:00 +10°C° 0 mm 2 mps 727 mmHg 59%
    10:00 +13°C° 0 mm 2 mps 727 mmHg 53%
    11:00 +16°C° 0 mm 3 mps 727 mmHg 46%
    12:00 +16°C° 0 mm 3 mps 727 mmHg 48%
    13:00 +16°C° 0 mm 3 mps 726 mmHg 51%
    14:00 +17°C° 0 mm 3 mps 726 mmHg 53%
    15:00 +14°C° 0 mm 3 mps 726 mmHg 58%
    16:00 +13°C° 0 mm 3 mps 725 mmHg 64%
    17:00 +13°C° 0 mm 2 mps 725 mmHg 69%
    18:00 +12°C° 0 mm 2 mps 725 mmHg 74%
    19:00 +10°C° 0 mm 2 mps 725 mmHg 79%
    20:00 +8°C° 0 mm 2 mps 725 mmHg 85%
    21:00 +8°C° 0 mm 2 mps 725 mmHg 86%
    22:00 +7°C° 0 mm 2 mps 725 mmHg 87%
    23:00 +7°C° 0 mm 2 mps 726 mmHg 88%

    Tomorrow, 15 November, Thursday

    Time Temperature Precipitation Wind Pressure Humidity
    00:00 +6°C° 0 mm 2 mps 725 mmHg 87%
    01:00 +6°C° 0 mm 2 mps 725 mmHg 87%
    02:00 +6°C° 0 mm 2 mps 725 mmHg 86%
    03:00 +6°C° 0 mm 2 mps 725 mmHg 86%
    04:00 +6°C° 0 mm 2 mps 725 mmHg 86%
    05:00 +6°C° 0 mm 2 mps 724 mmHg 85%
    06:00 +6°C° 0 mm 2 mps 725 mmHg 85%
    07:00 +6°C° 0 mm 2 mps 725 mmHg 84%
    08:00 +5°C° 0 mm 3 mps 725 mmHg 83%
    09:00 +7°C° 0 mm 3 mps 726 mmHg 74%
    10:00 +8°C° 0 mm 4 mps 726 mmHg 66%
    11:00 +10°C° 0 mm 4 mps 726 mmHg 57%
    12:00 +10°C° 0 mm 4 mps 726 mmHg 53%
    13:00 +11°C° 0 mm 4 mps 725 mmHg 49%
    14:00 +11°C° 0 mm 4 mps 725 mmHg 46%
    15:00 +10°C° 0 mm 3 mps 725 mmHg 50%
    16:00 +9°C° 0 mm 3 mps 725 mmHg 54%
    17:00 +8°C° 0 mm 2 mps 725 mmHg 59%
    18:00 +7°C° 0 mm 2 mps 725 mmHg 64%
    19:00 +6°C° 0 mm 2 mps 725 mmHg 69%
    20:00 +6°C° 0 mm 1 mps 726 mmHg 74%
    21:00 +5°C° 0 mm 1 mps 726 mmHg 75%
    22:00 +5°C° 0 mm 1 mps 726 mmHg 76%
    23:00 +5°C° 0 mm 1 mps 726 mmHg 78%

    Day after tomorrow, 16 November, Friday

    Time Temperature Precipitation Wind Pressure Humidity
    00:00 +5°C° 0 mm 1 mps 726 mmHg 78%
    01:00 +5°C° 0 mm 1 mps 726 mmHg 79%
    02:00 +5°C° 0 mm 1 mps 726 mmHg 79%
    03:00 +5°C° 0.1 mm 1 mps 726 mmHg 80%
    04:00 +5°C° 0.1 mm 1 mps 726 mmHg 81%
    05:00 +5°C° 0.1 mm 1 mps 726 mmHg 82%
    06:00 +5°C° 0.1 mm 1 mps 727 mmHg 82%
    07:00 +5°C° 0.1 mm 1 mps 727 mmHg 81%
    08:00 +5°C° 0.1 mm 1 mps 727 mmHg 81%
    09:00 +5°C° 0 mm 2 mps 728 mmHg 73%
    10:00 +7°C° 0 mm 2 mps 728 mmHg 66%
    11:00 +8°C° 0 mm 2 mps 728 mmHg 58%
    12:00 +9°C° 0 mm 2 mps 728 mmHg 55%
    13:00 +9°C° 0 mm 3 mps 728 mmHg 52%
    14:00 +10°C° 0 mm 3 mps 727 mmHg 48%
    15:00 +9°C° 0 mm 3 mps 727 mmHg 53%
    16:00 +7°C° 0 mm 2 mps 727 mmHg 58%
    17:00 +6°C° 0 mm 2 mps 727 mmHg 62%
    18:00 +5°C° 0 mm 2 mps 727 mmHg 68%
    19:00 +4°C° 0 mm 2 mps 728 mmHg 73%
    20:00 +3°C° 0 mm 2 mps 728 mmHg 79%
    21:00 +2°C° 0 mm 2 mps 728 mmHg 80%
    22:00 +2°C° 0 mm 2 mps 728 mmHg 82%
    23:00 +2°C° 0 mm 2 mps 729 mmHg 83%

    17 November, Saturday

    Time Temperature Precipitation Wind Pressure Humidity
    00:00 +1°C° 0 mm 2 mps 729 mmHg 83%
    01:00 +1°C° 0 mm 2 mps 729 mmHg 84%
    02:00 +1°C° 0 mm 2 mps 729 mmHg 84%
    03:00 -1°C° 0 mm 2 mps 729 mmHg 83%
    04:00 -1°C° 0 mm 2 mps 729 mmHg 82%
    05:00 -1°C° 0 mm 2 mps 728 mmHg 81%
    06:00 -1°C° 0 mm 2 mps 729 mmHg 78%
    07:00 +1°C° 0 mm 1 mps 729 mmHg 75%
    08:00 +1°C° 0 mm 1 mps 729 mmHg 72%
    09:00 +2°C° 0 mm 2 mps 729 mmHg 63%
    10:00 +4°C° 0 mm 2 mps 729 mmHg 54%
    11:00 +6°C° 0 mm 2 mps 729 mmHg 44%
    12:00 +7°C° 0 mm 2 mps 729 mmHg 43%
    13:00 +8°C° 0 mm 2 mps 729 mmHg 42%
    14:00 +8°C° 0 mm 2 mps 728 mmHg 40%
    15:00 +7°C° 0 mm 2 mps 728 mmHg 46%
    16:00 +6°C° 0 mm 2 mps 728 mmHg 52%
    17:00 +4°C° 0 mm 2 mps 728 mmHg 57%
    18:00 +4°C° 0 mm 1 mps 728 mmHg 62%
    19:00 +3°C° 0 mm 1 mps 729 mmHg 66%
    20:00 +2°C° 0 mm 1 mps 729 mmHg 71%
    21:00 +2°C° 0 mm 1 mps 729 mmHg 72%
    22:00 +1°C° 0 mm 1 mps 729 mmHg 74%
    23:00 +1°C° 0 mm 1 mps 729 mmHg 75%

    18 November, Sunday

    Time Temperature Precipitation Wind Pressure Humidity
    00:00 +1°C° 0 mm 1 mps 729 mmHg 76%
    01:00 +1°C° 0 mm 1 mps 729 mmHg 76%
    02:00 +1°C° 0 mm 1 mps 729 mmHg 76%
    03:00 +1°C° 0 mm 1 mps 728 mmHg 75%
    04:00 +1°C° 0 mm 1 mps 728 mmHg 75%
    05:00 +1°C° 0 mm 1 mps 728 mmHg 74%
    06:00 +2°C° 0 mm 1 mps 728 mmHg 73%
    07:00 +2°C° 0 mm 1 mps 728 mmHg 73%
    08:00 +2°C° 0 mm 1 mps 728 mmHg 73%
    09:00 +3°C° 0 mm 2 mps 728 mmHg 65%
    10:00 +5°C° 0 mm 2 mps 728 mmHg 58%
    11:00 +7°C° 0 mm 2 mps 728 mmHg 51%
    12:00 +8°C° 0 mm 2 mps 727 mmHg 50%
    13:00 +8°C° 0 mm 2 mps 726 mmHg 49%
    14:00 +9°C° 0 mm 2 mps 725 mmHg 48%
    15:00 +8°C° 0 mm 2 mps 725 mmHg 53%
    16:00 +7°C° 0 mm 2 mps 724 mmHg 59%
    17:00 +6°C° 0 mm 1 mps 724 mmHg 65%
    18:00 +5°C° 0 mm 1 mps 724 mmHg 69%
    19:00 +5°C° 0 mm 1 mps 723 mmHg 73%
    20:00 +4°C° 0 mm 1 mps 723 mmHg 77%
    21:00 +4°C° 0 mm 1 mps 723 mmHg 78%
    22:00 +3°C° 0 mm 1 mps 723 mmHg 79%
    23:00 +3°C° 0 mm 1 mps 722 mmHg 80%

    19 November, Monday

    Time Temperature Precipitation Wind Pressure Humidity
    00:00 +3°C° 0 mm 1 mps 722 mmHg 80%
    01:00 +3°C° 0 mm 1 mps 721 mmHg 79%
    02:00 +3°C° 0 mm 1 mps 720 mmHg 79%
    03:00 +3°C° 0 mm 1 mps 720 mmHg 79%
    04:00 +3°C° 0 mm 1 mps 720 mmHg 78%
    05:00 +4°C° 0 mm 1 mps 719 mmHg 78%
    06:00 +4°C° 0 mm 1 mps 719 mmHg 77%
    07:00 +4°C° 0 mm 1 mps 719 mmHg 76%
    08:00 +4°C° 0 mm 1 mps 719 mmHg 76%
    09:00 +6°C° 0 mm 1 mps 719 mmHg 69%
    10:00 +7°C° 0 mm 1 mps 719 mmHg 63%
    11:00 +9°C° 0 mm 1 mps 719 mmHg 57%
    12:00 +9°C° 0.1 mm 1 mps 718 mmHg 58%
    13:00 +9°C° 0.1 mm 1 mps 718 mmHg 59%
    14:00 +9°C° 0.1 mm 1 mps 717 mmHg 61%
    15:00 +8°C° 0.2 mm 1 mps 717 mmHg 65%
    16:00 +8°C° 0.2 mm 1 mps 717 mmHg 70%
    17:00 +7°C° 0.2 mm 1 mps 717 mmHg 75%
    18:00 +6°C° 0.5 mm 1 mps 717 mmHg 78%
    19:00 +6°C° 0.5 mm 1 mps 717 mmHg 81%
    20:00 +5°C° 0.5 mm 1 mps 717 mmHg 84%
    21:00 +5°C° 0.7 mm 1 mps 717 mmHg 85%
    22:00 +5°C° 0.7 mm 1 mps 717 mmHg 86%
    23:00 +5°C° 0.7 mm 1 mps 717 mmHg 88%
    Show more